Simultaneous Nadir Overpasses (SNOs) Predictions

Prediction of SNOs between AQUA and NOAA-19 Satellite Orbit:

Table of predicted SNOs for the next 14.0 days since TLE Epoch: 11/18/2023
Index Date (AQUA) Time (AQUA) Lat,Lon (AQUA) SZA (AQUA ) Date (NOAA-19) Time (NOAA-19) Lat,Lon (NOAA-19) SZA (NOAA-19 ) Distance(km) Time Diff (sec)
1 11/18/2023 16:41:41 -75.86, 103.65 84.94 11/18/2023 16:40:30 -75.79, 102.25 84.99 38.87 71
2 11/18/2023 17:31:10 76.09, -89.42 95.31 11/18/2023 17:31:27 76.08, -89.47 95.30 1.48 17
3 11/20/2023 21:22:52 -76.02, 32.91 84.27 11/20/2023 21:21:42 -76.02, 32.79 84.27 3.40 70
4 11/20/2023 22:12:18 76.11,-159.73 95.83 11/20/2023 22:12:43 76.12,-159.61 95.84 3.20 25
5 11/23/2023 02:04:00 -76.06, -37.47 83.75 11/23/2023 02:02:58 -76.05, -37.33 83.75 3.63 62
6 11/23/2023 02:53:25 76.10, 130.03 96.31 11/23/2023 02:54:00 76.09, 130.05 96.30 1.18 35
7 11/25/2023 06:45:06 -76.03,-107.63 83.33 11/25/2023 06:44:15 -76.04,-107.63 83.31 1.48 51
8 11/25/2023 07:34:31 76.08, 59.86 96.73 11/25/2023 07:35:16 76.11, 59.85 96.76 3.16 45
9 11/27/2023 11:26:12 -76.03,-177.88 82.91 11/27/2023 11:25:32 -76.03,-177.95 82.91 2.04 40
10 11/27/2023 12:15:37 76.09, -10.41 97.16 11/27/2023 12:16:32 76.12, -10.38 97.19 3.39 55
11 11/29/2023 16:07:18 -76.06, 111.78 82.49 11/29/2023 16:06:48 -76.05, 111.87 82.50 2.98 30
12 11/29/2023 16:56:43 76.12, -80.76 97.58 11/29/2023 16:57:48 76.12, -80.63 97.57 3.48 65
13 12/01/2023 20:48:22 -76.03, 41.65 82.17 12/01/2023 20:48:04 -76.06, 41.66 82.14 3.91 18



Historial Predications of SNOs between AQUA and NOAA-19
